Find Haishao-1

NORAD ID: 62190 Int'l Des: 2024-228 Owner: XXYW Country: CN operational
LEOCIRCULAR

Live Position

Loading 3D Globe...

About Haishao-1

Description loading...

Upcoming Passes

Passes for default location (London). Set your location on the main map for personalized predictions.

Altitude History

Loading altitude history...

Two-Line Element Set

1 62190U 24228A 26105.77819752 .00022711 00000-0 22760-3 0 9999
2 62190 42.9766 18.4644 0001904 293.4132 66.6533 15.65073294 77802
Epoch: Apr 15, 2026 • Age: 11 hours

Current Status

Altitude 372.2 km
Velocity 7.69 km/s
Sub-Earth Point 18.04°N, 109.04°E
Launch Date Dec 4, 2024
Age 1.3 years
Type other

Technical Details

Classification Payload
Mass 400.00 kg
Dry Mass 400.00 kg
Total Mass 400.00 kg
Length 1.00 m
Diameter 1.00 m
Span 6.00 m
Shape Box+3 pan
Manufacturer ZHWK/IMICAS
Bus Type ZK1
Phase Status In Orbit
Owner/State XXYW/CN

Most Searched